Regional Weather Roundup
Issued by NWS

Home | Current Version | Previous Version | Graphics & Text | Print | Product List | Glossary On
Versions: 1 2 3 4 5 6 7 8 9 10 11 12 13 14 15 16 17 18 19 20 21 22 23 24 25 26 27 28 29 30 31 32 33 34 35 36 37 38 39 40 41 42 43 44 45 46 47 48 49 50
000
ASUS43 KIND 290909
RWRIN

WEATHER ROUNDUP FOR INDIANA
NATIONAL WEATHER SERVICE INDIANAPOLIS IN
500 AM EDT WED JUL 29 2015

NOTE: "FAIR" INDICATES FEW OR NO CLOUDS BELOW 12,000 FEET WITH NO
SIGNIFICANT WEATHER AND/OR OBSTRUCTIONS TO VISIBILITY.

* - STATION DOES NOT REPORT WEATHER SUCH AS PRECIPITATION OR FOG.

+ - STATION NOT QUALITY CONTROLLED BY THE NATIONAL WEATHER SERVICE.
    USE DATA WITH CAUTION...ESPECIALLY DEWPOINT AND RELATIVE
    HUMIDITY OBSERVATIONS.

INZ001>003-010>013-019-020-291000-
NORTHWEST INDIANA

CITY           SKY/WX    TMP DP  RH WIND       PRES   REMARKS
GARY /AIRPORT/ DRIZZLE   77  76  97 CALM      29.94S
KNOX *+        CLOUDY    73  73 100 S3        29.93S
LA PORTE +     CLOUDY    75  75 100 CALM      29.95R FOG
MICHIGAN CITY+ CLOUDY    75  73  94 SW5       29.94R
MONTICELLO +   MOCLDY    76  76 100 S3        29.95R FOG
RENSSELAER +   CLOUDY    75  75 100 W8G16     29.96R
VALPARAISO     CLOUDY    77  73  87 SW9       29.96R

$$

LMZ046-743>745-291000-
SOUTHERN LAKE MICHIGAN

STATION/POSITION TIME  TEMP    WIND        PRES    WAVE
                       AIR SEA DIR/SP/G            HT
                 (UTC) (F)     (DEG/KT/KT) (MB)    (FT)
BURNS HARBOR     0800   79     200/  9/ 10 1013.5S
MICHIGAN CITY    0800   79     140/  7/  9   N/A
5NW MICH CITY    0900   77 75  250/ 10/ 12   N/A     1

$$

INZ004-005-014>016-021>024-291000-
NORTH CENTRAL INDIANA

CITY           SKY/WX    TMP DP  RH WIND       PRES   REMARKS
GOSHEN         PTCLDY    73  68  84 S3        29.95R
LOGANSPORT +   MOCLDY    72  68  88 SW3       29.96R FOG
PERU/GRISSOM   CLEAR     73  72  96 S2        29.95R
ROCHESTER +    MOCLDY    77  77 100 CALM      29.96R
SOUTH BEND     CLOUDY    77  71  82 S3        29.95R
WARSAW +       PTCLDY    72  70  94 CALM      29.95S

$$

INZ006>009-017-018-025>027-291000-
NORTHEAST INDIANA

CITY           SKY/WX    TMP DP  RH WIND       PRES   REMARKS
ANGOLA *+      CLEAR     72  63  73 CALM      29.96S
AUBURN +       CLEAR     70  64  83 CALM      29.97R
FORT WAYNE     MOCLDY    72  69  90 CALM      29.96S
HUNTINGTON +   CLEAR     74  72  93 S3        29.95R

$$

INZ028-029-035-036-043>045-051>053-291000-
WEST CENTRAL INDIANA

CITY           SKY/WX    TMP DP  RH WIND       PRES   REMARKS
CRAWFORDSVL +  MOCLDY    72  72 100 CALM        N/A
GREENCASTLE +  PTCLDY    73  70  88 CALM      29.98R FOG
LAFAYETTE      MOCLDY    74  73  97 SW3       29.95R FOG
TERRE HAUTE    MOCLDY    76  74  93 CALM      29.96R

$$

INZ030>032-037>040-046>048-054>057-064-065-291000-
CENTRAL INDIANA

CITY           SKY/WX    TMP DP  RH WIND       PRES   REMARKS
FRANKFORT +    PTCLDY   N/A N/A N/A CALM      29.99R FOG
INDIANAPOLIS   PTCLDY    78  70  76 CALM      29.96R
-EAGLE CREEK   PTCLDY    76  73  91 CALM      29.96R
KOKOMO *+      PTCLDY    73  70  88 CALM      29.96R
MARION +       CLEAR     71  70  98 CALM      29.97R FOG
MT COMFORT *+    N/A     72 N/A N/A CALM      29.97R VSB 1/4
SHELBYVILLE    FOG       73  71  93 CALM      29.96R VSB 3/4
ZIONSVILLE +   PTCLDY    73  70  91 CALM      29.98R FOG

$$

INZ033-034-041-042-049-050-058-059-291000-
EAST CENTRAL INDIANA

CITY           SKY/WX    TMP DP  RH WIND       PRES   REMARKS
MUNCIE         CLEAR     73  71  93 CALM      29.97R

$$

INZ060-061-067>069-081>083-085>088-291000-
SOUTHWEST INDIANA

CITY           SKY/WX    TMP DP  RH WIND       PRES   REMARKS
EVANSVILLE     MOCLDY    76  73  91 CALM      29.97R
HUNTINGBURG *+ CLEAR     73  70  88 CALM      29.98R
WASHINGTON +   CLEAR     73  69  88 CALM      29.97R FOG

$$

INZ062-063-066-070>080-084-089>092-291000-
SOUTH CENTRAL AND SOUTHEAST INDIANA

CITY           SKY/WX    TMP DP  RH WIND       PRES   REMARKS
BLOOMINGTON    CLEAR     74  73  97 CALM      29.97R
MADISON *+     CLEAR     72  70  94 CALM      30.00R

$$



USA.gov is the U.S. government's official web portal to all federal, state and local government web resources and services.